Location: Aulus
(42.7909°N, 1.3399°E)
Time: 20:54:26
(UTC+00:00)

Meteor 2-8 Rocket - Pass Details

Date: 19 May 2025
Orbit: 937 x 957 km, 82.5° (Epoch: 21 June)

Event Time Altitude Azimuth Distance (km) Brightness Sun altitude
Rises 23:15:23 0° 353° (N) 3,647 8.8 -26.7°
Reaches altitude 10° 23:17:54 10° 355° (N) 2,698 7.8 -26.8°
Maximum altitude 23:24:05 75° 81° (E) 994 4.4 -26.9°
Enters shadow 23:24:50 66° 132° (SE) 1,038 4.4 -26.9°
